K9UO Weather Reports


Display with metric or nautical units.
time (UTC)temp
F
wind
direction
speed
MPH
gust
MPH
rain 1hr
in
rain 24hr
in
rain mn
in
humidity
%
barometer
mb
20260506231512 55 223 2.0 6.0 0.00 0.20 0.05 52 1013.4
20260506230010 55 24 5.0 7.0 0.00 0.20 0.05 55 1013.5
20260506224501 55 245 2.0 6.0 0.00 0.22 0.05 53 1013.6
20260506223101 55 238 5.0 9.0 0.00 0.22 0.05 53 1013.9
20260506221553 54 239 4.0 8.0 0.00 0.22 0.05 53 1013.9
20260506220051 54 275 1.0 7.0 0.00 0.22 0.05 53 1013.8
20260506214544 54 314 3.0 8.0 0.00 0.24 0.05 54 1013.6
20260506213040 54 351 2.0 8.0 0.00 0.24 0.05 54 1013.7
20260506211546 54 350 4.0 7.0 0.00 0.24 0.05 52 1013.5
20260506210035 54 18 5.0 9.0 0.00 0.24 0.05 52 1013.4
20260506204529 54 284 4.0 8.0 0.00 0.26 0.05 54 1013.3
20260506203027 54 351 5.0 8.0 0.00 0.26 0.05 53 1013.4
20260506201525 54 15 4.0 8.0 0.00 0.26 0.05 53 1013.5
20260506200017 54 9 6.0 11.0 0.00 0.26 0.05 52 1013.6
20260506194511 54 324 4.0 10.0 0.00 0.34 0.05 51 1013.7
20260506193008 54 314 2.0 9.0 0.00 0.34 0.05 53 1013.6
20260506191502 54 265 2.0 7.0 0.00 0.34 0.05 53 1013.5
20260506190059 54 254 3.0 8.0 0.00 0.34 0.05 52 1013.4
20260506184554 53 309 0.0 8.0 0.00 0.34 0.05 52 1013.6
20260506183049 53 13 2.0 8.0 0.00 0.34 0.05 53 1013.6
20260506181545 53 260 2.0 7.0 0.00 0.34 0.05 53 1013.7
20260506180041 53 311 5.0 8.0 0.00 0.34 0.05 53 1013.6
20260506174538 54 321 4.0 6.0 0.00 0.34 0.05 53 1013.5
20260506173032 54 292 4.0 8.0 0.00 0.34 0.05 53 1013.7
20260506171530 54 351 5.0 8.0 0.00 0.34 0.05 53 1013.6
20260506170023 54 286 3.0 9.0 0.00 0.34 0.05 53 1013.5
20260506164521 53 285 1.0 6.0 0.00 0.35 0.05 53 1013.4
20260506163014 53 330 5.0 11.0 0.00 0.35 0.05 54 1013.9
20260506161510 53 317 7.0 10.0 0.00 0.35 0.05 53 1013.8
20260506160006 53 16 4.0 10.0 0.00 0.35 0.05 53 1013.6
20260506154500 52 5 0.0 7.0 0.00 0.35 0.05 50 1013.2
20260506153056 52 109 1.0 9.0 0.00 0.35 0.05 51 1013.6
20260506151552 52 13 3.0 9.0 0.00 0.35 0.05 49 1013.5
20260506150058 51 15 4.0 10.0 0.00 0.35 0.05 50 1013.3
20260506144600 50 9 4.0 11.0 0.00 0.35 0.05 48 1013.2
20260506143049 50 15 5.0 8.0 0.00 0.35 0.05 40 1013.1
20260506141535 49 346 6.0 8.0 0.00 0.35 0.05 34 1012.7
20260506140046 49 9 3.0 8.0 0.00 0.35 0.05 18 1012.8
20260506134532 45 269 3.0 8.0 0.00 0.35 0.05 1 1012.8
20260506133022 46 313 5.0 8.0 0.00 0.35 0.05 1 1012.7
20260506131519 46 11 3.0 9.0 0.00 0.35 0.05 1 1012.6
20260506130013 46 342 4.0 7.0 0.00 0.35 0.05 1 1012.5
20260506124509 45 22 0.0 5.0 0.00 0.35 0.05 1 1012.3
20260506123004 45 272 1.0 4.0 0.00 0.35 0.05 1 1012.1
20260506121602 45 230 1.0 3.0 0.00 0.35 0.05 1 1011.9
20260506114552 44 242 0.0 3.0 0.00 0.35 0.05 1 1011.4
20260506113051 44 269 2.0 3.0 0.00 0.35 0.05 1 1011.1
20260506111542 43 254 0.0 2.0 0.01 0.35 0.05 1 1011.0
20260506110042 43 290 0.0 2.0 0.01 0.35 0.05 1 1010.4
20260506104533 43 355 0.0 1.0 0.01 0.35 0.05 1 1010.3
20260506103029 43 355 0.0 2.0 0.01 0.35 0.05 1 1010.1
20260506101529 43 355 0.0 1.0 0.00 0.34 0.04 1 1010.2
20260506100021 43 355 0.0 4.0 0.00 0.34 0.04 1 1010.1
20260506094516 43 360 1.0 4.0 0.00 0.35 0.04 1 1009.6
20260506093011 43 5 1.0 3.0 0.00 0.35 0.04 1 1009.9
20260506091506 43 5 0.0 2.0 0.00 0.35 0.04 1 1009.2
20260506090004 43 9 0.0 0.0 0.00 0.35 0.04 1 1009.5
20260506084601 43 5 0.0 2.0 0.00 0.43 0.04 1 1009.8
20260506083058 43 9 1.0 5.0 0.00 0.43 0.04 1 1009.3
20260506081603 42 248 0.0 2.0 0.00 0.43 0.04 1 1009.0
20260506073038 43 14 1.0 4.0 0.00 0.47 0.04 1 1009.7
20260506071532 42 17 0.0 0.0 0.01 0.47 0.04 1 1009.4
20260506061514 43 17 0.0 1.0 0.01 0.48 0.03 1 1009.6
20260506044552 44 10 3.0 6.0 0.02 0.47 0.02 1 1009.2
20260506043042 45 13 1.0 6.0 0.02 0.46 0.01 1 1009.3
20260506041542 45 11 2.0 5.0 0.02 0.46 0.01 1 1009.5
20260506040035 45 19 0.0 0.0 0.02 0.45 0.00 1 1009.2
20260506034530 45 19 0.0 6.0 0.02 0.45 0.45 1 1009.0
20260506033028 46 9 3.0 8.0 0.01 0.44 0.44 1 1009.0
20260506031538 46 74 0.0 2.0 0.02 0.44 0.44 1 1009.2
20260506030016 46 73 0.0 2.0 0.01 0.43 0.43 1 1009.2
20260506024515 46 64 1.0 3.0 0.02 0.43 0.43 1 1009.1
20260506023007 46 62 1.0 4.0 0.03 0.43 0.43 1 1008.7
20260506021503 47 61 0.0 4.0 0.03 0.42 0.42 1 1008.9
20260506020059 47 63 0.0 1.0 0.04 0.42 0.42 1 1008.8
20260506014555 47 63 0.0 1.0 0.04 0.41 0.41 1 1008.6
20260506013103 47 62 0.0 1.0 0.05 0.40 0.40 1 1008.4
20260506011546 47 62 0.0 2.0 0.05 0.39 0.39 1 1008.0
20260506010053 47 59 0.0 2.0 0.05 0.38 0.38 1 1007.9
20260506004536 47 37 1.0 2.0 0.04 0.37 0.37 1 1008.1
20260506003032 47 360 3.0 5.0 0.03 0.35 0.35 1 1008.5
20260506001530 47 12 0.0 4.0 0.03 0.34 0.34 1 1008.4
20260506000023 47 12 0.0 0.0 0.02 0.33 0.33 1 1008.2
20260505234519 47 11 0.0 4.0 0.03 0.33 0.33 1 1008.1
20260505233014 47 15 1.0 9.0 0.02 0.32 0.32 1 1008.0